FW1937 Weather Reports


Display with metric or nautical units.
time (UTC)temp
F
wind
direction
speed
MPH
gust
MPH
rain 1hr
in
rain 24hr
in
rain mn
in
humidity
%
barometer
mb
20260504050346 57 244 1.0 3.0 0.00 0.08 0.02 68 1006.0
20260504045845 57 244 2.0 4.0 0.00 0.08 0.02 68 1006.0
20260504045345 57 256 2.0 4.0 0.00 0.08 0.02 68 1006.0
20260504044845 57 287 2.0 3.0 0.00 0.08 0.02 68 1006.0
20260504044341 57 223 2.0 3.0 0.00 0.08 0.02 68 1005.9
20260504043841 57 194 2.0 3.0 0.00 0.08 0.02 68 1006.0
20260504043342 57 178 1.0 3.0 0.00 0.08 0.02 68 1006.0
20260504042842 57 177 1.0 3.0 0.00 0.08 0.02 68 1005.9
20260504042605 57 177 1.0 4.0 0.00 0.08 0.02 68 1006.0
20260504041841 57 177 1.0 4.0 0.00 0.08 0.02 68 1006.0
20260504041341 57 180 2.0 5.0 0.01 0.08 0.02 68 1006.1
20260504040841 57 181 3.0 5.0 0.01 0.08 0.02 68 1006.1
20260504040605 57 180 3.0 7.0 0.01 0.08 0.02 68 1006.1
20260504040100 57 213 3.0 7.0 0.01 0.08 0.02 68 1006.1
20260504035342 57 202 2.0 5.0 0.01 0.08 0.02 68 1006.2
20260504034842 57 181 2.0 5.0 0.01 0.08 0.02 68 1006.2
20260504034342 57 189 2.0 5.0 0.01 0.08 0.02 68 1006.2
20260504034106 57 218 2.0 5.0 0.01 0.08 0.02 68 1006.2
20260504033342 57 224 3.0 7.0 0.01 0.08 0.02 68 1006.1
20260504032841 57 217 3.0 7.0 0.01 0.08 0.02 68 1006.2
20260504032341 57 218 3.0 7.0 0.01 0.08 0.02 68 1006.2
20260504031841 57 229 3.0 7.0 0.01 0.08 0.02 68 1006.3
20260504031354 57 224 3.0 9.0 0.00 0.07 0.01 68 1006.4
20260504030842 57 230 4.0 9.0 0.00 0.07 0.01 68 1006.4
20260504030341 57 264 4.0 9.0 0.00 0.07 0.01 68 1006.4
20260504025842 57 278 4.0 9.0 0.00 0.07 0.01 68 1006.4
20260504025341 57 232 4.0 8.0 0.00 0.07 0.01 68 1006.3
20260504024825 57 203 3.0 8.0 0.00 0.07 0.01 68 1006.3
20260504024549 57 246 3.0 8.0 0.00 0.07 0.01 68 1006.4
20260504023826 57 257 3.0 7.0 0.00 0.07 0.01 68 1006.4
20260504023542 57 244 2.0 4.0 0.00 0.07 0.01 68 1006.4
20260504022833 57 200 2.0 5.0 0.00 0.07 0.01 68 1006.5
20260504021817 57 201 2.0 4.0 0.00 0.07 0.01 68 1006.4
20260504021317 57 217 2.0 4.0 0.00 0.07 0.01 68 1006.4
20260504020817 57 216 2.0 4.0 0.00 0.07 0.01 68 1006.3
20260504020316 57 216 2.0 4.0 0.00 0.07 0.01 68 1006.3
20260504015816 57 221 2.0 3.0 0.00 0.07 0.01 68 1006.3
20260504015317 57 174 2.0 3.0 0.00 0.07 0.01 68 1006.3
20260504014817 57 222 2.0 3.0 0.00 0.07 0.01 68 1006.3
20260504014316 57 233 1.0 3.0 0.00 0.07 0.01 68 1006.4
20260504013816 57 233 2.0 3.0 0.00 0.07 0.01 68 1006.4
20260504013316 57 234 2.0 4.0 0.00 0.07 0.01 68 1006.4
20260504013049 57 236 2.0 4.0 0.00 0.07 0.01 68 1006.4
20260504012316 57 243 2.0 4.0 0.00 0.07 0.01 68 1006.3
20260504011830 57 194 2.0 4.0 0.00 0.07 0.01 68 1006.4
20260504011316 57 196 2.0 4.0 0.00 0.07 0.01 68 1006.5
20260504010817 57 122 1.0 4.0 0.00 0.07 0.01 68 1006.5
20260504010540 57 122 1.0 4.0 0.00 0.07 0.01 68 1006.4
20260504005816 57 119 1.0 5.0 0.00 0.07 0.01 68 1006.3
20260504005316 58 118 2.0 5.0 0.00 0.07 0.01 68 1006.3
20260504004816 58 118 3.0 6.0 0.00 0.07 0.01 68 1006.2
20260504004316 58 136 2.0 6.0 0.00 0.07 0.01 67 1006.2
20260504003817 58 108 2.0 4.0 0.00 0.07 0.01 67 1006.1
20260504003316 58 199 1.0 5.0 0.00 0.07 0.01 67 1006.1
20260504002816 58 219 2.0 5.0 0.01 0.07 0.01 67 1006.1
20260504002317 58 221 4.0 11.0 0.01 0.07 0.01 67 1006.0
20260504001816 58 237 5.0 11.0 0.01 0.07 0.01 67 1006.0
20260504001317 58 313 5.0 14.0 0.01 0.07 0.01 67 1005.9
20260504000819 58 287 5.0 14.0 0.01 0.07 0.01 68 1005.8
20260504000316 58 286 5.0 16.0 0.01 0.07 0.01 67 1005.9
20260503235819 58 267 4.0 16.0 0.01 0.07 0.01 68 1006.0
20260503234810 58 267 5.0 15.0 0.01 0.07 0.01 68 1006.1
20260503234529 58 251 5.0 16.0 0.01 0.07 0.01 68 1006.1
20260503233810 58 260 6.0 16.0 0.01 0.07 0.01 68 1005.9
20260503233308 58 294 6.0 16.0 0.01 0.07 0.01 68 1005.9
20260503232810 58 289 7.0 16.0 0.00 0.06 0.00 68 1006.2
20260503232308 59 289 6.0 15.0 0.00 0.06 0.00 68 1006.2
20260503232034 59 220 6.0 17.0 0.00 0.06 0.00 68 1006.1
20260503231307 59 204 8.0 17.0 0.00 0.06 0.00 69 1006.2
20260503230810 59 228 8.0 18.0 0.00 0.06 0.00 69 1006.3
20260503230304 59 213 6.0 18.0 0.00 0.06 0.00 69 1006.1
20260503225800 59 292 3.0 14.0 0.00 0.06 0.00 69 1006.0
20260503225257 59 215 1.0 3.0 0.00 0.06 0.00 69 1006.0
20260503224800 59 202 1.0 3.0 0.00 0.06 0.00 69 1005.9
20260503224258 59 207 1.0 3.0 0.00 0.06 0.00 69 1005.8
20260503223801 59 204 1.0 3.0 0.00 0.06 0.00 69 1005.7
20260503223524 59 197 0.0 3.0 0.00 0.06 0.00 69 1005.7
20260503222800 59 197 1.0 2.0 0.00 0.06 0.00 69 1005.5
20260503221801 59 197 1.0 3.0 0.00 0.06 0.00 69 1005.7
20260503221258 59 197 1.0 3.0 0.00 0.06 0.00 69 1005.7
20260503220801 59 196 1.0 3.0 0.00 0.06 0.00 69 1005.8
20260503215801 59 197 2.0 3.0 0.00 0.06 0.06 69 1005.7
20260503215258 60 197 1.0 3.0 0.00 0.06 0.06 69 1005.7
20260503214801 60 196 1.0 2.0 0.00 0.06 0.06 69 1005.7
20260503214257 60 196 1.0 3.0 0.00 0.06 0.06 69 1005.7
20260503213800 60 196 2.0 3.0 0.00 0.06 0.06 69 1005.8
20260503213256 60 196 2.0 3.0 0.00 0.06 0.06 69 1005.7
20260503213033 60 190 2.0 3.0 0.00 0.06 0.06 69 1005.7
20260503212254 60 186 2.0 3.0 0.00 0.06 0.06 69 1005.7
20260503211758 60 141 1.0 3.0 0.00 0.06 0.06 69 1005.7
20260503211255 60 139 0.0 0.0 0.00 0.06 0.06 69 1005.7
20260503210521 61 139 0.0 0.0 0.00 0.06 0.06 69 1005.6
20260503210027 61 139 0.0 0.0 0.00 0.06 0.06 69 1005.8
20260503205255 61 139 0.0 2.0 0.00 0.06 0.06 69 1005.8
20260503204758 61 139 0.0 2.0 0.00 0.06 0.06 69 1005.8
20260503204255 61 139 1.0 3.0 0.00 0.06 0.06 69 1005.8
20260503204033 61 139 1.0 3.0 0.00 0.06 0.06 69 1005.8
20260503203255 61 138 1.0 2.0 0.00 0.06 0.06 69 1005.8
20260503202757 61 138 1.0 2.0 0.01 0.06 0.06 69 1005.8
20260503202514 61 138 2.0 4.0 0.01 0.06 0.06 69 1005.8
20260503202030 62 138 2.0 4.0 0.01 0.06 0.06 70 1005.8
20260503201255 62 73 1.0 3.0 0.01 0.06 0.06 71 1005.7
20260503200757 62 73 1.0 3.0 0.01 0.06 0.06 71 1005.7
20260503200033 62 71 0.0 2.0 0.02 0.06 0.06 71 1005.5
20260503195255 62 71 1.0 3.0 0.03 0.07 0.06 71 1005.4
20260503194758 62 71 1.0 3.0 0.04 0.07 0.06 71 1005.4
20260503194255 62 71 1.0 2.0 0.04 0.07 0.06 71 1005.5
20260503193758 62 71 1.0 3.0 0.04 0.07 0.06 71 1005.2
20260503193254 62 69 1.0 3.0 0.04 0.07 0.06 71 1005.3
20260503192757 62 69 2.0 4.0 0.03 0.06 0.06 71 1005.2
20260503192255 62 69 2.0 4.0 0.03 0.06 0.06 71 1005.2
20260503191757 63 68 1.0 7.0 0.03 0.06 0.06 71 1005.2
20260503191237 63 291 1.0 7.0 0.03 0.06 0.06 71 1005.0
20260503191002 63 295 1.0 8.0 0.03 0.06 0.06 71 1004.9
20260503190237 63 328 1.0 8.0 0.02 0.06 0.05 71 1004.9
20260503190004 63 288 0.0 6.0 0.02 0.05 0.04 71 1004.8
20260503185453 63 288 1.0 7.0 0.02 0.04 0.03 71 1004.8
20260503184728 64 292 2.0 7.0 0.01 0.03 0.02 70 1004.7
20260503184228 64 265 1.0 3.0 0.01 0.03 0.02 71 1004.6
20260503183728 64 266 1.0 3.0 0.01 0.03 0.02 70 1010.9
20260503183228 64 263 0.0 2.0 0.01 0.03 0.02 70 1004.4
20260503182729 64 263 0.0 2.0 0.01 0.03 0.02 70 1004.4
20260503182226 64 263 0.0 2.0 0.01 0.03 0.02 70 1004.4
20260503181712 64 262 0.0 1.0 0.01 0.03 0.02 70 1010.7
20260503181212 65 261 0.0 3.0 0.01 0.03 0.02 70 1004.3
20260503180712 65 261 0.0 3.0 0.01 0.03 0.02 70 1004.2
20260503180433 65 261 1.0 4.0 0.01 0.03 0.02 69 1004.2
20260503175929 65 261 2.0 4.0 0.00 0.02 0.02 69 1004.2
20260503175212 65 267 2.0 4.0 0.00 0.02 0.02 69 1004.2
20260503174712 65 277 1.0 4.0 0.00 0.02 0.02 68 1004.2
20260503174430 65 5 0.0 0.0 0.00 0.02 0.02 68 1004.0
20260503173656 66 5 0.0 2.0 0.00 0.02 0.02 68 1003.9
20260503173156 66 5 0.0 2.0 0.00 0.02 0.02 68 1004.1
20260503172656 66 5 1.0 4.0 0.00 0.02 0.02 68 1004.1
20260503172157 66 5 1.0 4.0 0.00 0.02 0.02 67 1004.1
20260503171656 66 5 1.0 4.0 0.00 0.02 0.02 68 1004.1
20260503171156 66 9 1.0 4.0 0.00 0.02 0.02 68 1004.1
20260503170657 67 13 1.0 4.0 0.00 0.03 0.02 67 1004.1
20260503170157 67 13 1.0 4.0 0.00 0.03 0.02 67 1004.1
20260503160146 67 96 2.0 6.0 0.00 0.06 0.02 66 1004.1
20260503150637 64 34 1.0 3.0 0.00 0.06 0.02 67 1005.1
20260503150406 64 24 0.0 3.0 0.00 0.06 0.02 66 1005.3
20260503140111 62 151 3.0 6.0 0.02 0.06 0.02 70 1006.2
20260503131049 64 314 9.0 22.0 0.00 0.04 0.00 69 1006.5
20260503130549 66 290 8.0 17.0 0.00 0.04 0.00 69 1006.5
20260503130105 68 302 8.0 17.0 0.00 0.04 0.00 68 1006.4
20260503110539 71 103 8.0 14.0 0.00 0.04 0.00 71 1006.2
20260503090236 65 17 1.0 4.0 0.00 0.04 0.00 67 1006.7
20260503081017 62 327 0.0 2.0 0.00 0.04 0.00 69 1006.8
20260503080531 62 327 0.0 2.0 0.00 0.04 0.00 69 1006.8
20260503072514 59 213 0.0 2.0 0.00 0.04 0.00 70 1007.2
20260503072014 58 213 0.0 2.0 0.00 0.04 0.00 70 1007.1
20260503071733 58 213 0.0 0.0 0.00 0.04 0.00 70 1007.2
20260503070512 57 213 0.0 0.0 0.00 0.04 0.00 70 1007.1
20260503060235 55 213 1.0 2.0 0.00 0.04 0.00 73 1006.7
20260503055010 55 213 1.0 2.0 0.00 0.04 0.00 73 1006.7
20260503054733 55 213 1.0 3.0 0.00 0.04 0.00 73 1006.7
20260503054010 55 213 1.0 3.0 0.00 0.04 0.00 73 1006.7
20260503053508 55 214 1.0 4.0 0.00 0.04 0.00 73 1006.7
20260503053010 55 214 2.0 4.0 0.00 0.04 0.00 73 1006.8
20260503052518 55 217 2.0 3.0 0.00 0.04 0.00 73 1006.8
20260503052234 55 216 1.0 3.0 0.00 0.04 0.00 73 1006.8
20260503051508 55 215 0.0 1.0 0.00 0.04 0.00 73 1006.7